Regional Weather Roundup
Issued by NWS

Home | Current Version | Previous Version | Text Only | Print | Product List | Glossary Off
Versions: 1 2 3 4 5 6 7 8 9 10 11 12 13 14 15 16 17 18 19 20 21 22 23 24 25 26 27 28 29 30 31 32 33 34 35 36 37 38 39 40 41 42 43 44 45 46 47 48 49 50

000
ASUS43 KLMK 200610
RWRKY
KENTUCKY REGIONAL WEATHER ROUNDUP
NATIONAL WEATHER SERVICE LOUISVILLE KY
200 AM EDT SUN APR 20 2014

NOTE "FAIR" INDICATES FEW OR NO CLOUDS BELOW 12,000 FEET
WITH NO SIGNIFICANT WEATHER AND/OR OBSTRUCTIONS TO VISIBILITY.

KYZ001>023-026-027-061>063-070>075-200700-
WESTERN AND SOUTH CENTRAL KENTUCKY

CITY           SKY/WX    TMP DP  RH WIND       PRES   REMARKS
PADUCAH        FAIR      52  44  74 E3        30.17F
HENDERSON      FAIR      48  43  81 CALM      30.20R
OWENSBORO      FAIR      56  42  59 CALM      30.20S
HOPKINSVILLE   FAIR      57  39  51 E2        30.18S
BOWLING GREEN  FAIR      50  40  68 CALM      30.19F
GLASGOW        FAIR      57  35  44 NE5       30.19S
$$

KYZ024-025-028>034-038-045-046-053-200700-
NORTH CENTRAL KENTUCKY

CITY           SKY/WX    TMP DP  RH WIND       PRES   REMARKS
LOUISVILLE/SDF FAIR      56  36  47 N5        30.22S
LOUISVILLE/LOU FAIR      60  35  39 NE6       30.22S
FORT KNOX      FAIR      55  35  46 N5        30.21S
$$

KYZ035>037-039>044-047>052-055>060-089>105-200700-
NORTHEAST KENTUCKY

CITY           SKY/WX    TMP DP  RH WIND       PRES   REMARKS
LEXINGTON      FAIR      50  37  61 NE10      30.21F
COVINGTON      FAIR      54  34  46 NE7       30.24F
FRANKFORT      FAIR      54  35  48 NE5       30.21S
$$

KYZ054-064>069-076>088-106>120-200700-
SOUTHEAST KENTUCKY

CITY           SKY/WX    TMP DP  RH WIND       PRES   REMARKS
JACKSON        FAIR      57  30  35 VRB5      30.20F
LONDON         FAIR      55  35  47 N5        30.18F
SOMERSET       FAIR      55  36  47 CALM      30.19F
MIDDLESBORO    FAIR      47  42  83 CALM      30.20S
MONTICELLO     FAIR      45  39  79 CALM      30.20S
$$




USA.gov is the U.S. government's official web portal to all federal, state and local government web resources and services.